Regional Weather Roundup
Issued by NWS San Angelo, TX

Home | Current Version | Previous Version | Text Only | Print | Product List | Glossary On
Versions: 1 2 3 4 5 6 7 8 9 10 11 12 13 14 15 16 17 18 19 20 21 22 23 24 25 26 27 28 29 30 31 32 33 34 35 36 37 38 39 40 41 42 43 44 45 46 47 48 49 50
000
ASUS44 KSJT 262002
RWRSJT
WEST CENTRAL TEXAS REGIONAL WEATHER ROUNDUP
NATIONAL WEATHER SERVICE SAN ANGELO TX
300 PM CDT THU MAR 26 2015

NOTE: "FAIR" INDICATES FEW OR NO CLOUDS BELOW 12,000 FEET WITH NO
SIGNIFICANT WEATHER AND/OR OBSTRUCTIONS TO VISIBILITY.

TXZ049-054-064>066-071>073-076>078-098-099-113-114-127-128-139-140-
154-155-168>170-262100
...LOCATIONS ACROSS WEST CENTRAL TEXAS...

CITY           SKY/WX    TMP DP  RH WIND       PRES   REMARKS
SAN ANGELO     SUNNY     64  36  35 N17       30.20F
ABILENE        SUNNY     61  29  29 N15G24    30.21F
DYESS AFB      SUNNY     61  32  34 N18       30.20F
JUNCTION       SUNNY     64  39  39 N22G29    30.15F
SWEETWATER     NOT AVBL
BROWNWOOD      NOT AVBL
COLEMAN        NOT AVBL
SONORA         NOT AVBL
OZONA          NOT AVBL
BRADY          SUNNY     63  36  36 N20G26    30.15F
$$

TEXAS PANHANDLE/OKLAHOMA PANHANDLE

CITY           SKY/WX    TMP DP  RH WIND       PRES   REMARKS
AMARILLO       SUNNY     60  19  20 W10G16    30.22F
BORGER         SUNNY     60  21  22 W10       30.20F
CANADIAN       SUNNY     62  25  25 W9G17     30.19F
DALHART        MOSUNNY   63  19  18 W18G28    30.20F
DUMAS          PTCLDY    60  21  21 W13G23    30.20F
GUYMON         NOT AVBL
HEREFORD       NOT AVBL
PAMPA          NOT AVBL
PERRYTON       NOT AVBL
$$

SOUTHERN PANHANDLE/SOUTH PLAINS/ROLLING PLAINS

CITY           SKY/WX    TMP DP  RH WIND       PRES   REMARKS
LUBBOCK        MOSUNNY   61  20  20 NW10      30.24F
SNYDER         NOT AVBL
CHILDRESS      SUNNY     61  23  23 NW16      30.23F
SEMINOLE       CLEAR     58  21  24 NW5       30.28F
$$

PERMIAN BASIN

CITY           SKY/WX    TMP DP  RH WIND       PRES   REMARKS
MIDLAND        SUNNY     59  25  27 N8        30.27F
ODESSA         SUNNY     58  27  30 NW8       30.28F
WINK           SUNNY     61  21  21 NE7       30.27F
$$

FAR WEST/SOUTHWEST MOUNTAINS/TRANS PECOS

CITY           SKY/WX    TMP DP  RH WIND       PRES   REMARKS
ALPINE         NOT AVBL
DRYDEN           N/A     66  37  34 N16G23    30.22F
EL PASO        MOSUNNY   62  26  25 NE9       30.27F
FORT STOCKTON  SUNNY     57  35  43 VRB7      30.28F
GUADALUPE PASS SUNNY     52  21  29 E13       30.31S
MARFA          MOSUNNY   55  30  38 N13G18    30.29F
PECOS          NOT AVBL
$$

DALLAS/FORT WORTH METROPLEX

CITY           SKY/WX    TMP DP  RH WIND       PRES   REMARKS
DFW AIRPORT    MOSUNNY   64  33  31 N17G28    30.11F
FTW MEACHAM    SUNNY     64  35  34 N20G30    30.12F
DAL-EXECUTIVE  SUNNY     64  39  39 N21G26    30.10F
GRAND PRAIRIE  SUNNY     64  37  36 MISG      30.13F
ADDISON        MOSUNNY   63  34  34 N17G30    30.12F
MESQUITE       CLEAR     63  36  36 NW17G24   30.11F
LANCASTER      CLEAR     62  41  45 N17G25    30.12F
$$

NORTH CENTRAL TEXAS

CITY           SKY/WX    TMP DP  RH WIND       PRES   REMARKS
SHRMAN/DENISON CLEAR     63  41  44 N15G25    30.13F
GAINESVILLE    NOT AVBL
BRIDGEPORT     CLEAR     62  37  38 N15G23    30.18F
DENTON         SUNNY     62  35  36 N15G26    30.13F
WAXAHACHIE     CLEAR     64  42  45 N20       30.12F
GRANBURY         N/A     64  34  32 N14       30.15F
$$

WESTERN NORTH TEXAS

CITY           SKY/WX    TMP DP  RH WIND       PRES   REMARKS
WICHITA FALLS  MOSUNNY   61  31  32 N14       30.19F
VERNON         CLEAR     62  21  20 NE10G17   30.22F
BRECKENRIDGE   NOT AVBL
COMANCHE       SUNNY     62  36  38 N18G25    30.18F
$$

CENTRAL AND SOUTH CENTRAL TEXAS

CITY           SKY/WX    TMP DP  RH WIND       PRES   REMARKS
AUSTIN/BERGSTM CLOUDY    65  46  50 N24       30.06F
WACO           MOSUNNY   65  45  48 N23G30    30.10F
HILLSBORO      NOT AVBL
TEMPLE         SUNNY     64  45  48 N22G29    30.09F
KILLEEN-GRAY   NOT AVBL
FORT HOOD      NOT AVBL
GEORGETOWN     SUNNY     66  45  45 MISG      30.09F
LAGO VISTA     FAIR      67  42  40 N17G29    30.10F
SAN MARCOS     SUNNY     64  43  45 N25G32    30.09F
NEW BRAUNFELS  PTSUNNY   67  44  43 N26G37    30.05F
RANDOLPH AFB   NOT AVBL
SAN ANTONIO    PTSUNNY   66  44  45 N20G28    30.09R
STINSON        PTSUNNY   67  44  43 N18G28    30.07S
PLEASANTON     NOT AVBL
LA GRANGE      NOT AVBL
GIDDINGS       PTCLDY    63  47  57 N17G30    30.09F
$$

EAST TEXAS

CITY           SKY/WX    TMP DP  RH WIND       PRES   REMARKS
PARIS          NOT AVBL
CLARKSVILLE    NOT AVBL
TYLER          CLOUDY    61  44  53 N21G29    30.03F
LONGVIEW       PTSUNNY   63  46  54 N20G31    29.99F
PALESTINE      MOCLDY    62  47  58 N16G25    30.05F
NACOGDOCHES    CLOUDY    59  48  67 N12G21    30.01S
$$

TEXAS HILL COUNTRY AND EDWARDS PLATEAU

CITY           SKY/WX    TMP DP  RH WIND       PRES   REMARKS
LLANO          NOT AVBL
HORSESHOE BAY  FAIR      64  44  47 N12G25    30.12F
KERRVILLE      NOT AVBL
FREDERICKSBRG  NOT AVBL
ROCKSPRINGS    NOT AVBL
HONDO          PTSUNNY   64  44  48 N14       30.15R
UVALDE         MOCLDY    63  43  48 N10       30.14F
DEL RIO        MOSUNNY   70  41  34 N17G25    30.15F
$$

SOUTHEAST TEXAS

CITY           SKY/WX    TMP DP  RH WIND       PRES   REMARKS
COLLEGE STN    SUNNY     64  48  56 NW23G30   30.03F
CALDWELL       NOT AVBL
CROCKETT       PTCLDY    64  52  63 NW15G23   30.04F
BRENHAM        NOT AVBL
HUNTSVILLE     PTSUNNY   64  49  57 N20G30    30.01F
CONROE         CLOUDY    63  49  60 N16G31    30.00S
HOUSTON BUSH   PTSUNNY   64  51  62 NW22G28   29.97F
HOUSTON HOBBY  MOSUNNY   67  52  58 NW24G36   29.94F
PERLAND        SUNNY     68  52  56 N20G30    29.95F
WHARTON        CLEAR     64  53  65 N26G32    29.98F
$$

THE UPPER TEXAS COAST

CITY           SKY/WX    TMP DP  RH WIND       PRES   REMARKS
ORANGE         NOT AVBL
PORT ARTHUR    CLOUDY    66  58  75 NW15      29.92R
GALVESTON      CLOUDY    68  58  70 N22       29.94S
ANGLETON       MOSUNNY   65  54  67 N17G30    29.94S
BAY CITY       CLEAR     66  56  70 N23       29.95F
$$

TEXAS COASTAL BEND, RIO GRANDE PLAINS DEEP SOUTH TEXAS

CITY           SKY/WX    TMP DP  RH WIND       PRES   REMARKS
VICTORIA       SUNNY     69  54  58 N21G29    30.01F
BEEVILLE       FAIR      69  53  57 N14G28    30.05R
ROCKPORT       MOSUNNY   71  53  52 N21G28    29.98F
PORT ARANSAS   NOT AVBL
PORT LAVACA    NOT AVBL
CORPUS CHRISTI PTSUNNY   71  55  56 N22       29.98F
KINGSVILLE NAS CLOUDY    73  57  57 N24G32    30.00R
COTULLA        CLOUDY    64  49  57 N6        30.14R
LAREDO         PTSUNNY   67  48  50 NW17G29   30.11F
BROWNSVILLE    RAIN      69  67  93 N17G30    29.93S FOG
PORT ISABEL    CLOUDY    69  63  81 N20G33    29.92F HAZE
HEBBRONVILLE   NOT AVBL
MCALLEN        CLOUDY    70  61  73 NW17G29   30.00R
WESLACO        NOT AVBL
FALFURRIAS     NOT AVBL
EDINBURG       CLOUDY    69  58  66 N15G28    30.00R
$$


USA.gov is the U.S. government's official web portal to all federal, state and local government web resources and services.